Location: Banios
(43.0451°N, 0.2335°E)
Time: 23:04:09
(UTC+00:00)

N. Korean satellite - Pass Details

Date: 07 December 2021
Orbit: 447 x 491 km, 97.3° (Epoch: 21 January)

Event Time Altitude Azimuth Distance (km) Brightness Sun altitude
Rises 06:32:38 0° 348° (NNW) 2,461 9.8 -8.0°
Reaches altitude 10° 06:36:43 10° 298° (WNW) 1,578 8.5 -7.3°
Maximum altitude 06:36:51 10° 296° (WNW) 1,577 8.5 -7.3°
Drops below altitude 10° 06:37:00 10° 293° (WNW) 1,578 8.5 -7.3°
Sets 06:41:04 0° 244° (WSW) 2,444 9.8 -6.6°
